Time,TemperatureF,DewpointF,PressureIn,WindDirection,WindDirectionDegrees,WindSpeedMPH,WindSpeedGustMPH,Humidity,HourlyPrecipIn,Conditions,Clouds,dailyrainin,SoftwareType,DateUTC
2013-03-19 00:02:00,24.0,13.0,-100.00,East,95,16.0,23.0,62,0.00,,,-99.99,,2013-03-19 05:02:00,
2013-03-19 00:12:00,23.0,12.0,-100.00,East,90,13.0,22.0,61,0.00,,,-99.99,,2013-03-19 05:12:00,
2013-03-19 00:22:00,23.0,12.0,-100.00,SE,125,16.0,23.0,61,0.00,,,-99.99,,2013-03-19 05:22:00,
2013-03-19 00:32:00,23.0,11.0,-100.00,ESE,115,16.0,24.0,61,0.00,,,-99.99,,2013-03-19 05:32:00,
2013-03-19 00:42:00,23.0,11.0,-100.00,ESE,115,16.0,24.0,61,0.00,,,-99.99,,2013-03-19 05:42:00,
2013-03-19 00:52:00,22.0,11.0,-100.00,ESE,115,15.0,21.0,62,0.00,,,-99.99,,2013-03-19 05:52:00,
2013-03-19 01:02:00,22.0,11.0,-100.00,ESE,115,15.0,21.0,62,0.00,,,-99.99,,2013-03-19 06:02:00,
2013-03-19 01:12:00,22.0,11.0,-100.00,ENE,65,16.0,21.0,62,0.00,,,-99.99,,2013-03-19 06:12:00,
2013-03-19 01:22:00,22.0,11.0,-100.00,East,100,12.0,19.0,62,0.00,,,-99.99,,2013-03-19 06:22:00,
2013-03-19 01:32:00,21.0,10.0,-100.00,NE,50,14.0,21.0,61,0.00,,,-99.99,,2013-03-19 06:32:00,
2013-03-19 01:42:00,21.0,10.0,-100.00,NE,50,14.0,21.0,61,0.00,,,-99.99,,2013-03-19 06:42:00,
2013-03-19 01:52:00,21.0,10.0,-100.00,ENE,65,9.0,20.0,61,0.00,,,-99.99,,2013-03-19 06:52:00,
2013-03-19 02:02:00,21.0,10.0,-100.00,ENE,65,9.0,20.0,61,0.00,,,-99.99,,2013-03-19 07:02:00,
2013-03-19 02:12:00,21.0,10.0,-100.00,East,85,13.0,19.0,62,0.00,,,-99.99,,2013-03-19 07:12:00,
2013-03-19 02:21:00,21.0,10.0,-100.00,NNE,30,11.0,19.0,62,0.00,,,-99.99,,2013-03-19 07:21:00,
2013-03-19 02:32:00,21.0,10.0,-100.00,SSE,150,13.0,21.0,62,0.00,,,-99.99,,2013-03-19 07:32:00,
2013-03-19 02:42:00,21.0,10.0,-100.00,SSE,150,13.0,21.0,62,0.00,,,-99.99,,2013-03-19 07:42:00,
2013-03-19 02:52:00,20.0,9.0,-100.00,East,95,12.0,20.0,61,0.00,,,-99.99,,2013-03-19 07:52:00,
2013-03-19 03:02:00,20.0,9.0,-100.00,East,95,12.0,20.0,61,0.00,,,-99.99,,2013-03-19 08:02:00,
2013-03-19 03:12:00,20.0,10.0,-100.00,East,80,14.0,19.0,62,0.00,,,-99.99,,2013-03-19 08:12:00,
2013-03-19 03:22:00,20.0,10.0,-100.00,East,80,14.0,20.0,62,0.00,,,-99.99,,2013-03-19 08:22:00,
2013-03-19 03:32:00,20.0,9.0,-100.00,NE,45,14.0,25.0,61,0.00,,,-99.99,,2013-03-19 08:32:00,
2013-03-19 03:42:00,20.0,9.0,-100.00,NE,45,14.0,25.0,61,0.00,,,-99.99,,2013-03-19 08:42:00,
2013-03-19 03:52:00,20.0,9.0,-100.00,ENE,60,9.0,16.0,62,0.00,,,-99.99,,2013-03-19 08:52:00,
2013-03-19 04:02:00,20.0,9.0,-100.00,ENE,60,9.0,16.0,62,0.00,,,-99.99,,2013-03-19 09:02:00,
2013-03-19 04:12:00,20.0,9.0,-100.00,East,90,9.0,17.0,62,0.00,,,-99.99,,2013-03-19 09:12:00,
2013-03-19 04:22:00,20.0,9.0,-100.00,East,85,9.0,18.0,62,0.00,,,-99.99,,2013-03-19 09:22:00,
2013-03-19 04:32:00,20.0,9.0,-100.00,NE,50,12.0,19.0,62,0.00,,,-99.99,,2013-03-19 09:32:00,
2013-03-19 04:42:00,20.0,9.0,-100.00,NE,50,12.0,19.0,62,0.00,,,-99.99,,2013-03-19 09:42:00,
2013-03-19 04:52:00,19.0,9.0,-100.00,NE,55,12.0,18.0,63,0.00,,,-99.99,,2013-03-19 09:52:00,
2013-03-19 05:03:00,19.0,9.0,-100.00,NE,55,12.0,18.0,63,0.00,,,-99.99,,2013-03-19 10:03:00,
2013-03-19 05:12:00,19.0,9.0,-100.00,ENE,75,13.0,18.0,63,0.00,,,-99.99,,2013-03-19 10:12:00,
2013-03-19 05:23:00,19.0,9.0,-100.00,East,90,9.0,17.0,64,0.00,,,-99.99,,2013-03-19 10:23:00,
2013-03-19 05:32:00,18.0,9.0,-100.00,NNE,30,7.0,13.0,65,0.00,,,-99.99,,2013-03-19 10:32:00,
2013-03-19 05:42:00,18.0,9.0,-100.00,NNE,30,7.0,13.0,65,0.00,,,-99.99,,2013-03-19 10:42:00,
2013-03-19 05:52:00,18.0,9.0,-100.00,SSE,160,9.0,13.0,66,0.00,,,-99.99,,2013-03-19 10:52:00,
2013-03-19 06:02:00,18.0,9.0,-100.00,SSE,160,9.0,13.0,66,0.00,,,-99.99,,2013-03-19 11:02:00,
2013-03-19 06:12:00,18.0,9.0,-100.00,SSE,160,10.0,14.0,66,0.00,,,-99.99,,2013-03-19 11:12:00,
2013-03-19 06:22:00,18.0,9.0,-100.00,NE,35,7.0,12.0,66,0.00,,,-99.99,,2013-03-19 11:22:00,
2013-03-19 06:32:00,18.0,9.0,-100.00,SSE,160,7.0,12.0,65,0.00,,,-99.99,,2013-03-19 11:32:00,
2013-03-19 06:42:00,18.0,9.0,-100.00,SSE,160,7.0,12.0,65,0.00,,,-99.99,,2013-03-19 11:42:00,
2013-03-19 06:52:00,18.0,8.0,-100.00,NNE,20,6.0,12.0,65,0.00,,,-99.99,,2013-03-19 11:52:00,
2013-03-19 07:02:00,18.0,8.0,-100.00,NNE,20,6.0,12.0,65,0.00,,,-99.99,,2013-03-19 12:02:00,
2013-03-19 07:12:00,18.0,8.0,-100.00,NE,45,8.0,13.0,65,0.00,,,-99.99,,2013-03-19 12:12:00,
2013-03-19 07:22:00,18.0,8.0,-100.00,NNE,20,7.0,15.0,65,0.00,,,-99.99,,2013-03-19 12:22:00,
2013-03-19 07:33:00,18.0,8.0,-100.00,NNE,30,6.0,9.0,66,0.00,,,-99.99,,2013-03-19 12:33:00,
2013-03-19 07:42:00,18.0,8.0,-100.00,NNE,30,6.0,9.0,66,0.00,,,-99.99,,2013-03-19 12:42:00,
2013-03-19 07:52:00,18.0,9.0,-100.00,East,90,9.0,13.0,65,0.00,,,-99.99,,2013-03-19 12:52:00,
2013-03-19 08:02:00,18.0,9.0,-100.00,East,90,9.0,13.0,65,0.00,,,-99.99,,2013-03-19 13:02:00,
2013-03-19 08:12:00,18.0,9.0,-100.00,NNE,20,6.0,12.0,65,0.00,,,-99.99,,2013-03-19 13:12:00,
2013-03-19 08:22:00,18.0,9.0,-100.00,NNE,20,6.0,12.0,65,0.00,,,-99.99,,2013-03-19 13:22:00,
2013-03-19 08:32:00,20.0,9.0,-100.00,NNE,30,10.0,14.0,63,0.00,,,-99.99,,2013-03-19 13:32:00,
2013-03-19 08:42:00,20.0,9.0,-100.00,NNE,30,10.0,14.0,63,0.00,,,-99.99,,2013-03-19 13:42:00,
2013-03-19 08:52:00,20.0,10.0,-100.00,SSW,195,11.0,16.0,62,0.00,,,-99.99,,2013-03-19 13:52:00,
2013-03-19 09:02:00,20.0,10.0,-100.00,SSW,195,11.0,16.0,62,0.00,,,-99.99,,2013-03-19 14:02:00,
2013-03-19 09:12:00,20.0,9.0,-100.00,ENE,60,14.0,19.0,61,0.00,,,-99.99,,2013-03-19 14:12:00,
2013-03-19 09:22:00,21.0,9.0,-100.00,NNE,30,13.0,20.0,59,0.00,,,-99.99,,2013-03-19 14:22:00,
2013-03-19 09:32:00,22.0,9.0,-100.00,East,80,12.0,16.0,58,0.00,,,-99.99,,2013-03-19 14:32:00,
2013-03-19 09:42:00,22.0,9.0,-100.00,East,80,12.0,16.0,58,0.00,,,-99.99,,2013-03-19 14:42:00,
2013-03-19 09:52:00,22.0,9.0,-100.00,East,85,12.0,16.0,58,0.00,,,-99.99,,2013-03-19 14:52:00,
2013-03-19 10:02:00,22.0,9.0,-100.00,East,85,12.0,16.0,58,0.00,,,-99.99,,2013-03-19 15:02:00,
2013-03-19 10:12:00,23.0,10.0,-100.00,NE,55,9.0,14.0,57,0.00,,,-99.99,,2013-03-19 15:12:00,
2013-03-19 10:22:00,22.0,9.0,-100.00,East,95,10.0,15.0,57,0.00,,,-99.99,,2013-03-19 15:22:00,
2013-03-19 10:33:00,23.0,10.0,-100.00,ENE,60,12.0,16.0,56,0.00,,,-99.99,,2013-03-19 15:33:00,
2013-03-19 10:43:00,23.0,10.0,-100.00,ENE,60,12.0,16.0,56,0.00,,,-99.99,,2013-03-19 15:43:00,
2013-03-19 10:53:00,24.0,10.0,-100.00,NNE,25,10.0,16.0,55,0.00,,,-99.99,,2013-03-19 15:53:00,
2013-03-19 11:03:00,24.0,10.0,-100.00,NNE,25,10.0,16.0,55,0.00,,,-99.99,,2013-03-19 16:03:00,
2013-03-19 11:13:00,25.0,11.0,-100.00,South,175,8.0,14.0,54,0.00,,,-99.99,,2013-03-19 16:13:00,
2013-03-19 11:23:00,25.0,10.0,-100.00,East,95,8.0,14.0,54,0.00,,,-99.99,,2013-03-19 16:23:00,
2013-03-19 11:34:00,27.0,12.0,-100.00,South,190,11.0,14.0,52,0.00,,,-99.99,,2013-03-19 16:34:00,
2013-03-19 11:43:00,27.0,12.0,-100.00,South,190,11.0,14.0,52,0.00,,,-99.99,,2013-03-19 16:43:00,
2013-03-19 11:53:00,27.0,12.0,-100.00,South,175,7.0,12.0,52,0.00,,,-99.99,,2013-03-19 16:53:00,
2013-03-19 12:03:00,27.0,12.0,-100.00,South,175,7.0,12.0,52,0.00,,,-99.99,,2013-03-19 17:03:00,
2013-03-19 12:13:00,27.0,12.0,-100.00,SE,135,5.0,9.0,51,0.00,,,-99.99,,2013-03-19 17:13:00,
2013-03-19 12:23:00,28.0,12.0,-100.00,South,170,6.0,9.0,49,0.00,,,-99.99,,2013-03-19 17:23:00,
2013-03-19 12:34:00,28.0,11.0,-100.00,SSE,165,7.0,9.0,48,0.00,,,-99.99,,2013-03-19 17:34:00,
2013-03-19 12:43:00,28.0,11.0,-100.00,SSE,165,7.0,9.0,48,0.00,,,-99.99,,2013-03-19 17:43:00,
2013-03-19 12:52:00,30.0,12.0,-100.00,South,175,6.0,12.0,47,0.00,,,-99.99,,2013-03-19 17:52:00,
2013-03-19 13:03:00,30.0,12.0,-100.00,South,175,6.0,12.0,47,0.00,,,-99.99,,2013-03-19 18:03:00,
2013-03-19 13:13:00,30.0,12.0,-100.00,NE,40,8.0,11.0,47,0.00,,,-99.99,,2013-03-19 18:13:00,
2013-03-19 13:23:00,31.0,13.0,-100.00,SE,125,7.0,11.0,45,0.00,,,-99.99,,2013-03-19 18:23:00,
2013-03-19 13:33:00,32.0,12.0,-100.00,SSE,150,4.0,9.0,42,0.00,,,-99.99,,2013-03-19 18:33:00,
2013-03-19 13:42:00,32.0,12.0,-100.00,SSE,150,4.0,9.0,42,0.00,,,-99.99,,2013-03-19 18:42:00,
2013-03-19 13:52:00,34.0,13.0,-100.00,ESE,120,2.0,6.0,40,0.00,,,-99.99,,2013-03-19 18:52:00,
2013-03-19 14:02:00,34.0,13.0,-100.00,ESE,120,2.0,6.0,40,0.00,,,-99.99,,2013-03-19 19:02:00,
2013-03-19 14:12:00,35.0,12.0,-100.00,SE,145,1.0,6.0,38,0.00,,,-99.99,,2013-03-19 19:12:00,
2013-03-19 14:22:00,35.0,13.0,-100.00,SSW,205,6.0,10.0,39,0.00,,,-99.99,,2013-03-19 19:22:00,
2013-03-19 14:32:00,35.0,12.0,-100.00,South,175,7.0,11.0,37,0.00,,,-99.99,,2013-03-19 19:32:00,
2013-03-19 14:42:00,35.0,12.0,-100.00,South,175,7.0,11.0,37,0.00,,,-99.99,,2013-03-19 19:42:00,
2013-03-19 14:52:00,35.0,11.0,-100.00,West,275,6.0,13.0,36,0.00,,,-99.99,,2013-03-19 19:52:00,
2013-03-19 15:02:00,35.0,11.0,-100.00,West,275,6.0,13.0,36,0.00,,,-99.99,,2013-03-19 20:02:00,
2013-03-19 15:12:00,37.0,13.0,-100.00,SE,140,9.0,14.0,37,0.00,,,-99.99,,2013-03-19 20:12:00,
2013-03-19 15:22:00,37.0,13.0,-100.00,WNW,285,6.0,13.0,37,0.00,,,-99.99,,2013-03-19 20:22:00,
2013-03-19 15:32:00,37.0,13.0,-100.00,West,260,9.0,15.0,37,0.00,,,-99.99,,2013-03-19 20:32:00,
2013-03-19 15:42:00,37.0,13.0,-100.00,West,260,9.0,15.0,37,0.00,,,-99.99,,2013-03-19 20:42:00,
2013-03-19 15:52:00,38.0,12.0,-100.00,West,265,9.0,16.0,34,0.00,,,-99.99,,2013-03-19 20:52:00,
2013-03-19 16:02:00,38.0,12.0,-100.00,West,265,9.0,16.0,34,0.00,,,-99.99,,2013-03-19 21:02:00,
2013-03-19 16:12:00,38.0,12.0,-100.00,West,280,7.0,14.0,34,0.00,,,-99.99,,2013-03-19 21:12:00,
2013-03-19 16:22:00,38.0,13.0,-100.00,SW,230,6.0,12.0,35,0.00,,,-99.99,,2013-03-19 21:22:00,
2013-03-19 16:33:00,39.0,14.0,-100.00,South,190,6.0,9.0,36,0.00,,,-99.99,,2013-03-19 21:33:00,
2013-03-19 16:42:00,39.0,14.0,-100.00,South,190,6.0,9.0,36,0.00,,,-99.99,,2013-03-19 21:42:00,
2013-03-19 16:52:00,40.0,16.0,-100.00,WSW,250,5.0,11.0,38,0.00,,,-99.99,,2013-03-19 21:52:00,
2013-03-19 17:03:00,40.0,16.0,-100.00,WSW,250,5.0,11.0,38,0.00,,,-99.99,,2013-03-19 22:03:00,
2013-03-19 17:12:00,40.0,17.0,-100.00,WSW,250,4.0,11.0,38,0.00,,,-99.99,,2013-03-19 22:12:00,
2013-03-19 17:23:00,41.0,18.0,-100.00,WSW,250,9.0,14.0,38,0.00,,,-99.99,,2013-03-19 22:23:00,
2013-03-19 17:33:00,40.0,17.0,-100.00,North,355,9.0,14.0,38,0.00,,,-99.99,,2013-03-19 22:33:00,
2013-03-19 17:43:00,40.0,17.0,-100.00,North,355,9.0,14.0,38,0.00,,,-99.99,,2013-03-19 22:43:00,
2013-03-19 17:52:00,39.0,17.0,-100.00,North,355,9.0,11.0,39,0.00,,,-99.99,,2013-03-19 22:52:00,
2013-03-19 18:02:00,39.0,17.0,-100.00,North,355,9.0,11.0,39,0.00,,,-99.99,,2013-03-19 23:02:00,
2013-03-19 18:12:00,39.0,17.0,-100.00,North,0,7.0,10.0,40,0.00,,,-99.99,,2013-03-19 23:12:00,
2013-03-19 18:22:00,39.0,17.0,-100.00,North,355,7.0,9.0,39,0.00,,,-99.99,,2013-03-19 23:22:00,
2013-03-19 18:32:00,38.0,17.0,-100.00,North,5,7.0,11.0,41,0.00,,,-99.99,,2013-03-19 23:32:00,
2013-03-19 18:42:00,38.0,17.0,-100.00,North,5,7.0,11.0,41,0.00,,,-99.99,,2013-03-19 23:42:00,
2013-03-19 18:52:00,37.0,17.0,-100.00,North,0,8.0,11.0,43,0.00,,,-99.99,,2013-03-19 23:52:00,
2013-03-19 19:02:00,37.0,17.0,-100.00,North,0,8.0,11.0,43,0.00,,,-99.99,,2013-03-20 00:02:00,
2013-03-19 19:12:00,36.0,17.0,-100.00,North,355,9.0,13.0,45,0.00,,,-99.99,,2013-03-20 00:12:00,
2013-03-19 19:22:00,35.0,17.0,-100.00,North,355,7.0,11.0,46,0.00,,,-99.99,,2013-03-20 00:22:00,
2013-03-19 19:33:00,34.0,17.0,-100.00,NNW,345,6.0,8.0,49,0.00,,,-99.99,,2013-03-20 00:33:00,
2013-03-19 19:42:00,34.0,17.0,-100.00,NNW,345,6.0,8.0,49,0.00,,,-99.99,,2013-03-20 00:42:00,
2013-03-19 19:52:00,33.0,18.0,-100.00,North,5,5.0,7.0,53,0.00,,,-99.99,,2013-03-20 00:52:00,
2013-03-19 20:03:00,33.0,18.0,-100.00,North,5,5.0,7.0,53,0.00,,,-99.99,,2013-03-20 01:03:00,
2013-03-19 20:12:00,32.0,18.0,-100.00,North,0,4.0,9.0,56,0.00,,,-99.99,,2013-03-20 01:12:00,
2013-03-19 20:22:00,31.0,19.0,-100.00,North,0,5.0,9.0,59,0.00,,,-99.99,,2013-03-20 01:22:00,
2013-03-19 20:32:00,31.0,20.0,-100.00,NNW,345,4.0,6.0,63,0.00,,,-99.99,,2013-03-20 01:32:00,
2013-03-19 20:42:00,31.0,20.0,-100.00,NNW,345,4.0,6.0,63,0.00,,,-99.99,,2013-03-20 01:42:00,
2013-03-19 20:52:00,30.0,20.0,-100.00,NNW,345,6.0,9.0,64,0.00,,,-99.99,,2013-03-20 01:52:00,
2013-03-19 21:02:00,30.0,20.0,-100.00,NNW,345,6.0,9.0,64,0.00,,,-99.99,,2013-03-20 02:02:00,
2013-03-19 21:12:00,30.0,20.0,-100.00,North,355,7.0,11.0,66,0.00,,,-99.99,,2013-03-20 02:12:00,
2013-03-19 21:22:00,30.0,20.0,-100.00,North,0,10.0,13.0,67,0.00,,,-99.99,,2013-03-20 02:22:00,
2013-03-19 21:32:00,30.0,21.0,-100.00,NNW,345,6.0,13.0,69,0.00,,,-99.99,,2013-03-20 02:32:00,
2013-03-19 21:42:00,30.0,21.0,-100.00,NNW,345,6.0,13.0,69,0.00,,,-99.99,,2013-03-20 02:42:00,
2013-03-19 21:52:00,29.0,21.0,-100.00,West,260,4.0,9.0,71,0.00,,,-99.99,,2013-03-20 02:52:00,
2013-03-19 22:02:00,29.0,21.0,-100.00,West,260,4.0,9.0,71,0.00,,,-99.99,,2013-03-20 03:02:00,
2013-03-19 22:12:00,29.0,21.0,-100.00,SW,230,5.0,9.0,73,0.00,,,-99.99,,2013-03-20 03:12:00,
2013-03-19 22:22:00,29.0,22.0,-100.00,NW,305,4.0,7.0,74,0.00,,,-99.99,,2013-03-20 03:22:00,
2013-03-19 22:33:00,28.0,22.0,-100.00,WSW,250,5.0,7.0,77,0.00,,,-99.99,,2013-03-20 03:33:00,
2013-03-19 22:42:00,28.0,22.0,-100.00,WSW,250,5.0,7.0,77,0.00,,,-99.99,,2013-03-20 03:42:00,
2013-03-19 22:53:00,28.0,23.0,-100.00,SSW,205,7.0,12.0,78,0.00,,,-99.99,,2013-03-20 03:53:00,
2013-03-19 23:03:00,28.0,23.0,-100.00,SSW,205,7.0,12.0,78,0.00,,,-99.99,,2013-03-20 04:03:00,
2013-03-19 23:12:00,28.0,23.0,-100.00,South,190,8.0,12.0,79,0.00,,,-99.99,,2013-03-20 04:12:00,
2013-03-19 23:22:00,28.0,22.0,-100.00,North,0,12.0,22.0,80,0.00,,,-99.99,,2013-03-20 04:22:00,
2013-03-19 23:32:00,26.0,21.0,-100.00,North,350,12.0,22.0,80,0.00,,,-99.99,,2013-03-20 04:32:00,
2013-03-19 23:43:00,26.0,21.0,-100.00,North,350,12.0,22.0,80,0.00,,,-99.99,,2013-03-20 04:43:00,
2013-03-19 23:52:00,27.0,22.0,-100.00,North,0,12.0,17.0,80,0.00,,,-99.99,,2013-03-20 04:52:00,